EAG5507 LTFM-OJAI

Flight info

Callsign EAG5507
Flight time 1h 41m
Altitude 35000
Route RATVU UT35 AYT UA16 TOMBI DCT IDAKU L35 PIKOG L609 VOLFO N134 RALNA
Aircraft A321/M-SDE3FGHIRWY/LB1

Departure

Time 2026-05-09 00:50
Airport İstanbul Airport (LTFM)

Arrival

Time 2026-05-09 02:31
Airport Queen Alia International Airport (OJAI)
Time Latitude Longitude Altitude Speed Heading
2026-05-09 00:27 41.26125 28.73618 334 ft 0 kts 107°
2026-05-09 00:42 41.26129 28.73597 329 ft 4 kts 104°
2026-05-09 00:43 41.26134 28.73562 330 ft 4 kts 95°
2026-05-09 00:43 41.26134 28.73527 330 ft 4 kts 74°
2026-05-09 00:43 41.26123 28.73502 330 ft 2 kts 19°
2026-05-09 00:43 41.26121 28.73501 330 ft 0 kts 17°
2026-05-09 00:46 41.26122 28.73501 330 ft 0 kts 17°
2026-05-09 00:46 41.26142 28.73509 331 ft 7 kts 17°
2026-05-09 00:46 41.26213 28.73494 329 ft 15 kts 309°
2026-05-09 00:47 41.26220 28.73335 334 ft 18 kts 269°
2026-05-09 00:47 41.26219 28.73238 334 ft 7 kts 269°
2026-05-09 00:47 41.26218 28.73164 331 ft 9 kts 269°
2026-05-09 00:47 41.26217 28.73079 333 ft 10 kts 269°
2026-05-09 00:48 41.26216 28.72983 333 ft 11 kts 269°
2026-05-09 00:48 41.26215 28.72960 334 ft 0 kts 269°
2026-05-09 00:48 41.26215 28.72959 334 ft 1 kts 269°
2026-05-09 00:48 41.26215 28.72947 334 ft 2 kts 269°
2026-05-09 00:49 41.26215 28.72896 334 ft 10 kts 269°
2026-05-09 00:49 41.26234 28.72785 331 ft 14 kts 323°
2026-05-09 00:49 41.26272 28.72776 334 ft 0 kts 359°
2026-05-09 00:49 41.26398 28.72773 334 ft 51 kts 359°
2026-05-09 00:50 41.26999 28.72759 333 ft 119 kts 359°
2026-05-09 00:50 41.28000 28.72736 340 ft 169 kts 359°
2026-05-09 00:50 41.29206 28.72713 888 ft 173 kts
2026-05-09 00:50 41.30415 28.72687 1524 ft 175 kts 358°
2026-05-09 00:51 41.31693 28.72662 1830 ft 194 kts 358°
2026-05-09 00:51 41.33113 28.72633 2038 ft 215 kts 358°
2026-05-09 00:51 41.34682 28.72600 2197 ft 234 kts 358°
2026-05-09 00:51 41.36327 28.72473 2520 ft 238 kts 346°
2026-05-09 00:52 41.37762 28.71334 2636 ft 252 kts 305°
2026-05-09 00:52 41.38402 28.69189 3052 ft 256 kts 273°
2026-05-09 00:52 41.38479 28.66821 3894 ft 254 kts 266°
2026-05-09 00:52 41.38399 28.64468 4743 ft 255 kts 264°
2026-05-09 00:53 41.38286 28.62111 5557 ft 255 kts 264°
2026-05-09 00:53 41.38177 28.59737 6368 ft 256 kts 262°
2026-05-09 00:53 41.37661 28.57517 7067 ft 257 kts 238°
2026-05-09 00:53 41.36410 28.55816 7735 ft 263 kts 212°
2026-05-09 00:54 41.34662 28.55063 8414 ft 271 kts 186°
2026-05-09 00:54 41.32758 28.55062 9130 ft 275 kts 182°
2026-05-09 00:54 41.30834 28.55115 9875 ft 277 kts 181°
2026-05-09 00:54 41.28872 28.55173 10309 ft 291 kts 181°
2026-05-09 00:55 41.26776 28.55471 10461 ft 316 kts 169°
2026-05-09 00:55 41.24645 28.56478 10826 ft 332 kts 156°
2026-05-09 00:55 41.22697 28.58187 11435 ft 341 kts 142°
2026-05-09 00:55 41.20966 28.60374 12076 ft 345 kts 139°
2026-05-09 00:56 41.19256 28.62575 12732 ft 348 kts 139°
2026-05-09 00:56 41.17505 28.64818 13376 ft 351 kts 139°
2026-05-09 00:56 41.15733 28.67076 13991 ft 355 kts 139°
2026-05-09 00:56 41.13944 28.69350 14573 ft 358 kts 139°
2026-05-09 00:57 41.12255 28.71809 15134 ft 364 kts 129°
2026-05-09 00:57 41.10841 28.74620 15709 ft 369 kts 126°
2026-05-09 00:57 41.09439 28.77486 16294 ft 372 kts 126°
2026-05-09 00:57 41.08025 28.80378 16869 ft 375 kts 126°
2026-05-09 00:58 41.06601 28.83289 17439 ft 379 kts 126°
2026-05-09 00:58 41.05130 28.86204 17983 ft 380 kts 130°
2026-05-09 00:58 41.03292 28.88709 18513 ft 379 kts 144°
2026-05-09 00:58 41.01062 28.90549 18976 ft 378 kts 158°
2026-05-09 00:59 40.98577 28.91632 19455 ft 376 kts 172°
2026-05-09 00:59 40.95975 28.91923 19935 ft 376 kts 184°
2026-05-09 00:59 40.93362 28.91621 20422 ft 378 kts 187°
2026-05-09 00:59 40.90735 28.91283 20911 ft 381 kts 187°
2026-05-09 01:00 40.88084 28.90960 21386 ft 385 kts 185°
2026-05-09 01:00 40.85385 28.91030 21853 ft 390 kts 178°
2026-05-09 01:00 40.82706 28.91259 22345 ft 392 kts 178°
2026-05-09 01:00 40.79965 28.91486 22796 ft 396 kts 179°
2026-05-09 01:01 40.77202 28.91708 23227 ft 399 kts 179°
2026-05-09 01:01 40.74416 28.91931 23661 ft 403 kts 179°
2026-05-09 01:01 40.71608 28.92155 24033 ft 405 kts 179°
2026-05-09 01:01 40.68783 28.92386 24408 ft 408 kts 179°
2026-05-09 01:02 40.65934 28.92620 24778 ft 410 kts 179°
2026-05-09 01:02 40.63078 28.92850 25143 ft 413 kts 179°
2026-05-09 01:02 40.60200 28.93080 25493 ft 415 kts 179°
2026-05-09 01:02 40.57311 28.93506 25842 ft 420 kts 171°
2026-05-09 01:03 40.54482 28.94585 26177 ft 427 kts 161°
2026-05-09 01:03 40.51813 28.96339 26511 ft 432 kts 150°
2026-05-09 01:03 40.49292 28.98513 26919 ft 434 kts 149°
2026-05-09 01:03 40.46764 29.00687 27279 ft 435 kts 149°
2026-05-09 01:04 40.44216 29.02858 27631 ft 438 kts 150°
2026-05-09 01:04 40.41655 29.05032 27959 ft 440 kts 150°
2026-05-09 01:04 40.39076 29.07218 28288 ft 442 kts 150°
2026-05-09 01:04 40.36479 29.09420 28522 ft 447 kts 150°
2026-05-09 01:05 40.33892 29.11619 28763 ft 451 kts 150°
2026-05-09 01:05 40.31221 29.13890 29080 ft 454 kts 150°
2026-05-09 01:05 40.25926 29.18378 29691 ft 459 kts 150°
2026-05-09 01:06 40.23234 29.20655 29987 ft 461 kts 150°
2026-05-09 01:06 40.20532 29.22937 30260 ft 463 kts 150°
2026-05-09 01:06 40.17706 29.24943 30493 ft 462 kts 160°
2026-05-09 01:06 40.14719 29.26429 30848 ft 459 kts 163°
2026-05-09 01:07 40.11710 29.27846 31063 ft 462 kts 164°
2026-05-09 01:07 40.08670 29.29283 31239 ft 465 kts 164°
2026-05-09 01:07 40.05616 29.30731 31513 ft 466 kts 164°
2026-05-09 01:07 40.02571 29.32180 31859 ft 466 kts 164°
2026-05-09 01:08 39.99523 29.33630 32196 ft 465 kts 164°
2026-05-09 01:08 39.96482 29.35070 32528 ft 465 kts 164°
2026-05-09 01:08 39.93443 29.36508 32860 ft 465 kts 164°
2026-05-09 01:08 39.90408 29.37945 33186 ft 465 kts 164°
2026-05-09 01:09 39.87380 29.39468 33461 ft 467 kts 162°
2026-05-09 01:09 39.84376 29.41094 33777 ft 468 kts 161°
2026-05-09 01:09 39.81424 29.42766 34113 ft 468 kts 160°
2026-05-09 01:09 39.78444 29.44481 34400 ft 468 kts 160°
2026-05-09 01:10 39.75470 29.46184 34674 ft 467 kts 160°
2026-05-09 01:10 39.72475 29.47869 34884 ft 469 kts 161°
2026-05-09 01:10 39.69465 29.49532 35060 ft 470 kts 161°
2026-05-09 01:11 39.63385 29.52820 35135 ft 475 kts 162°
2026-05-09 01:11 39.57237 29.55955 35128 ft 473 kts 163°
2026-05-09 01:12 39.51074 29.58963 35135 ft 473 kts 164°
2026-05-09 01:12 39.44954 29.61961 35116 ft 473 kts 164°
2026-05-09 01:13 39.38787 29.65032 35141 ft 476 kts 163°
2026-05-09 01:13 39.32607 29.68116 35148 ft 476 kts 163°
2026-05-09 01:14 39.26418 29.71197 35154 ft 476 kts 163°
2026-05-09 01:14 39.20234 29.74255 35147 ft 476 kts 164°
2026-05-09 01:15 39.14030 29.77300 35143 ft 477 kts 164°
2026-05-09 01:15 39.07862 29.80338 35151 ft 478 kts 163°
2026-05-09 01:16 39.01647 29.83402 35142 ft 478 kts 164°
2026-05-09 01:16 38.96488 29.85937 35137 ft 477 kts 165°
2026-05-09 01:17 38.87161 29.90510 35157 ft 478 kts 165°
2026-05-09 01:17 38.80927 29.93482 35165 ft 478 kts 166°
2026-05-09 01:18 38.74683 29.96422 35172 ft 478 kts 166°
2026-05-09 01:18 38.68440 29.99370 35184 ft 478 kts 165°
2026-05-09 01:19 38.62194 30.02335 35192 ft 479 kts 165°
2026-05-09 01:19 38.55977 30.05276 35184 ft 479 kts 165°
2026-05-09 01:20 38.49722 30.08220 35156 ft 479 kts 167°
2026-05-09 01:20 38.43460 30.11161 35171 ft 480 kts 167°
2026-05-09 01:21 38.37196 30.14098 35182 ft 479 kts 167°
2026-05-09 01:21 38.30937 30.17031 35194 ft 478 kts 167°
2026-05-09 01:22 38.24681 30.19915 35168 ft 478 kts 168°
2026-05-09 01:22 38.18455 30.22761 35182 ft 479 kts 168°
2026-05-09 01:23 38.12188 30.25634 35189 ft 479 kts 168°
2026-05-09 01:23 38.05916 30.28504 35194 ft 479 kts 168°
2026-05-09 01:24 37.99643 30.31364 35178 ft 480 kts 168°
2026-05-09 01:24 37.93361 30.34220 35199 ft 480 kts 168°
2026-05-09 01:25 37.87409 30.36910 35203 ft 480 kts 168°
2026-05-09 01:25 37.81112 30.39746 35177 ft 480 kts 167°
2026-05-09 01:26 37.74811 30.42596 35185 ft 481 kts 167°
2026-05-09 01:26 37.68513 30.45441 35193 ft 481 kts 167°
2026-05-09 01:27 37.62200 30.48273 35193 ft 481 kts 167°
2026-05-09 01:27 37.55885 30.51100 35158 ft 481 kts 167°
2026-05-09 01:28 37.49617 30.53911 35164 ft 482 kts 167°
2026-05-09 01:28 37.43253 30.56747 35167 ft 482 kts 167°
2026-05-09 01:29 37.36928 30.59566 35165 ft 482 kts 167°
2026-05-09 01:29 37.30654 30.62364 35147 ft 482 kts 167°
2026-05-09 01:30 37.24328 30.65187 35144 ft 483 kts 167°
2026-05-09 01:30 37.17979 30.68002 35133 ft 483 kts 167°
2026-05-09 01:31 37.11643 30.70802 35144 ft 483 kts 167°
2026-05-09 01:31 37.05294 30.73607 35118 ft 484 kts 167°
2026-05-09 01:32 36.98950 30.76417 35125 ft 484 kts 167°
2026-05-09 01:32 36.92564 30.78976 35129 ft 476 kts 176°
2026-05-09 01:33 36.86083 30.79648 35107 ft 465 kts 186°
2026-05-09 01:33 36.79609 30.79858 35117 ft 466 kts 186°
2026-05-09 01:34 36.73125 30.80095 35123 ft 466 kts 186°
2026-05-09 01:34 36.66639 30.80330 35120 ft 467 kts 186°
2026-05-09 01:35 36.60146 30.80558 35102 ft 467 kts 186°
2026-05-09 01:35 36.53648 30.80785 35102 ft 467 kts 186°
2026-05-09 01:36 36.47150 30.80994 35112 ft 467 kts 186°
2026-05-09 01:36 36.40694 30.81215 35115 ft 467 kts 186°
2026-05-09 01:37 36.34189 30.81441 35116 ft 467 kts 186°
2026-05-09 01:37 36.27686 30.81665 35113 ft 467 kts 186°
2026-05-09 01:38 36.21185 30.81874 35090 ft 467 kts 186°
2026-05-09 01:38 36.14676 30.82080 35098 ft 468 kts 186°
2026-05-09 01:39 36.08151 30.82492 35109 ft 475 kts 177°
2026-05-09 01:39 36.01795 30.85145 35112 ft 493 kts 156°
2026-05-09 01:40 35.98923 30.87505 35091 ft 500 kts 145°
2026-05-09 01:40 35.96211 30.90208 35092 ft 501 kts 145°
2026-05-09 01:40 35.91040 30.95319 35103 ft 501 kts 146°
2026-05-09 01:41 35.85855 31.00402 35105 ft 502 kts 146°
2026-05-09 01:41 35.80388 31.05760 35112 ft 502 kts 146°
2026-05-09 01:42 35.74958 31.11094 35111 ft 502 kts 146°
2026-05-09 01:42 35.69493 31.16455 35098 ft 502 kts 146°
2026-05-09 01:43 35.64031 31.21803 35107 ft 502 kts 146°
2026-05-09 01:43 35.58567 31.27132 35114 ft 501 kts 146°
2026-05-09 01:44 35.53095 31.32447 35120 ft 500 kts 146°
2026-05-09 01:44 35.47642 31.37756 35120 ft 500 kts 145°
2026-05-09 01:45 35.42228 31.43016 35117 ft 500 kts 146°
2026-05-09 01:45 35.36772 31.48296 35106 ft 499 kts 146°
2026-05-09 01:46 35.31328 31.53557 35115 ft 498 kts 145°
2026-05-09 01:46 35.25895 31.58808 35119 ft 498 kts 145°
2026-05-09 01:47 35.20451 31.64064 35119 ft 497 kts 145°
2026-05-09 01:47 35.15051 31.69260 35117 ft 497 kts 146°
2026-05-09 01:48 35.09613 31.74471 35101 ft 497 kts 145°
2026-05-09 01:48 35.04181 31.79684 35114 ft 496 kts 145°
2026-05-09 01:49 34.98760 31.84874 35117 ft 495 kts 145°
2026-05-09 01:49 34.93358 31.90026 35114 ft 495 kts 145°
2026-05-09 01:50 34.87934 31.95193 35116 ft 495 kts 145°
2026-05-09 01:50 34.82509 32.00370 35116 ft 495 kts 145°
2026-05-09 01:51 34.77099 32.05514 35097 ft 495 kts 145°
2026-05-09 01:51 34.71670 32.10667 35094 ft 495 kts 145°
2026-05-09 01:52 34.66230 32.15829 35093 ft 495 kts 145°
2026-05-09 01:52 34.60821 32.20937 35087 ft 495 kts 145°
2026-05-09 01:53 34.55369 32.26071 35088 ft 495 kts 145°
2026-05-09 01:53 34.49952 32.31176 35077 ft 495 kts 145°
2026-05-09 01:54 34.44522 32.36296 35093 ft 494 kts 144°
2026-05-09 01:54 34.39089 32.41405 35093 ft 494 kts 144°
2026-05-09 01:55 34.33652 32.46500 35092 ft 494 kts 145°
2026-05-09 01:55 34.28208 32.51587 35093 ft 494 kts 145°
2026-05-09 01:56 34.22776 32.56665 35092 ft 494 kts 145°
2026-05-09 01:56 34.17369 32.61709 35079 ft 494 kts 145°
2026-05-09 01:57 34.11924 32.66787 35083 ft 494 kts 145°
2026-05-09 01:57 34.06342 32.71585 35086 ft 492 kts 152°
2026-05-09 01:58 34.00513 32.75909 35091 ft 492 kts 152°
2026-05-09 01:58 33.94679 32.80255 35091 ft 492 kts 152°
2026-05-09 01:59 33.88854 32.84592 35076 ft 492 kts 152°
2026-05-09 01:59 33.83027 32.88923 35088 ft 493 kts 152°
2026-05-09 02:00 33.77194 32.93247 35092 ft 493 kts 152°
2026-05-09 02:00 33.71390 32.97542 35092 ft 493 kts 152°
2026-05-09 02:01 33.65550 33.01858 35092 ft 493 kts 152°
2026-05-09 02:01 33.59713 33.06162 35093 ft 492 kts 152°
2026-05-09 02:02 33.53871 33.10468 35093 ft 492 kts 152°
2026-05-09 02:02 33.48034 33.14769 35092 ft 492 kts 152°
2026-05-09 02:03 33.42190 33.19055 35097 ft 492 kts 153°
2026-05-09 02:03 33.36346 33.23331 35097 ft 492 kts 153°
2026-05-09 02:04 33.30547 33.27569 35078 ft 492 kts 153°
2026-05-09 02:04 33.24707 33.31842 35083 ft 492 kts 153°
2026-05-09 02:05 33.18862 33.36102 35085 ft 492 kts 153°
2026-05-09 02:05 33.13016 33.40361 35087 ft 492 kts 153°
2026-05-09 02:06 33.07175 33.44617 35092 ft 492 kts 153°
2026-05-09 02:07 32.99386 33.50283 35067 ft 493 kts 153°
2026-05-09 02:07 32.92561 33.55223 35071 ft 494 kts 153°
2026-05-09 02:08 32.86685 33.59456 35075 ft 494 kts 153°
2026-05-09 02:08 32.81928 33.63347 35078 ft 500 kts 142°
2026-05-09 02:09 32.77050 33.69212 35072 ft 502 kts 136°
2026-05-09 02:09 32.72206 33.75204 35052 ft 503 kts 137°
2026-05-09 02:10 32.67342 33.81190 35058 ft 504 kts 137°
2026-05-09 02:10 32.62470 33.87180 35066 ft 505 kts 137°
2026-05-09 02:11 32.57588 33.93173 35071 ft 505 kts 137°
2026-05-09 02:11 32.52716 33.99181 35081 ft 505 kts 136°
2026-05-09 02:12 32.47917 34.05184 35082 ft 505 kts 136°
2026-05-09 02:12 32.42882 34.10936 35084 ft 499 kts 147°
2026-05-09 02:13 32.37053 34.15276 35064 ft 497 kts 148°
2026-05-09 02:13 32.34413 34.17948 35068 ft 503 kts 136°
2026-05-09 02:13 32.32187 34.21168 35068 ft 507 kts 126°
2026-05-09 02:14 32.28848 34.28535 35073 ft 510 kts 118°
2026-05-09 02:14 32.25648 34.36017 34982 ft 511 kts 118°
2026-05-09 02:14 32.24023 34.39770 34178 ft 516 kts 118°
2026-05-09 02:15 32.22378 34.43574 33162 ft 523 kts 118°
2026-05-09 02:15 32.20718 34.47417 32237 ft 526 kts 118°
2026-05-09 02:15 32.19066 34.51258 31546 ft 523 kts 118°
2026-05-09 02:15 32.17491 34.55044 30494 ft 521 kts 114°
2026-05-09 02:16 32.16284 34.59081 29139 ft 522 kts 104°
2026-05-09 02:16 32.15544 34.63237 28218 ft 513 kts 100°
2026-05-09 02:16 32.14886 34.67354 27190 ft 508 kts 101°
2026-05-09 02:16 32.14213 34.71427 26104 ft 503 kts 101°
2026-05-09 02:17 32.13529 34.75470 24976 ft 501 kts 102°
2026-05-09 02:17 32.12852 34.79443 24387 ft 486 kts 102°
2026-05-09 02:17 32.12195 34.83305 23663 ft 475 kts 102°
2026-05-09 02:17 32.11556 34.87086 22892 ft 465 kts 102°
2026-05-09 02:18 32.10847 34.90782 22213 ft 460 kts 107°
2026-05-09 02:18 32.09854 34.94365 21550 ft 459 kts 109°
2026-05-09 02:18 32.08848 34.97889 20872 ft 458 kts 109°
2026-05-09 02:18 32.07832 35.01438 20202 ft 456 kts 109°
2026-05-09 02:19 32.06815 35.04985 19532 ft 455 kts 109°
2026-05-09 02:19 32.05798 35.08517 18859 ft 454 kts 109°
2026-05-09 02:19 32.04782 35.12038 18168 ft 453 kts 108°
2026-05-09 02:19 32.03769 35.15544 17494 ft 450 kts 108°
2026-05-09 02:20 32.02766 35.19023 16880 ft 447 kts 108°
2026-05-09 02:20 32.01767 35.22472 16273 ft 443 kts 109°
2026-05-09 02:20 32.00771 35.25894 15684 ft 440 kts 109°
2026-05-09 02:20 31.99783 35.29296 15088 ft 437 kts 109°
2026-05-09 02:21 31.98806 35.32674 14513 ft 434 kts 109°
2026-05-09 02:21 31.97840 35.36030 13904 ft 431 kts 109°
2026-05-09 02:21 31.96884 35.39369 13248 ft 428 kts 109°
2026-05-09 02:21 31.95936 35.42672 12616 ft 423 kts 109°
2026-05-09 02:22 31.94997 35.45931 12146 ft 415 kts 109°
2026-05-09 02:22 31.94092 35.49074 12018 ft 396 kts 108°
2026-05-09 02:22 31.93516 35.52170 11888 ft 379 kts 96°
2026-05-09 02:22 31.93458 35.55205 11763 ft 364 kts 85°
2026-05-09 02:23 31.93811 35.58056 11644 ft 349 kts 80°
2026-05-09 02:23 31.94222 35.60819 11524 ft 337 kts 80°
2026-05-09 02:23 31.94499 35.63505 11398 ft 324 kts 94°
2026-05-09 02:23 31.93952 35.66004 11156 ft 313 kts 121°
2026-05-09 02:24 31.92582 35.67927 10720 ft 307 kts 147°
2026-05-09 02:24 31.90680 35.68921 10445 ft 295 kts 170°
2026-05-09 02:24 31.88668 35.69342 10082 ft 292 kts 172°
2026-05-09 02:24 31.86671 35.69736 9607 ft 289 kts 172°
2026-05-09 02:25 31.84693 35.70123 9104 ft 287 kts 172°
2026-05-09 02:25 31.82736 35.70510 8528 ft 284 kts 171°
2026-05-09 02:25 31.80812 35.70891 8149 ft 271 kts 171°
2026-05-09 02:25 31.79002 35.71252 7801 ft 260 kts 171°
2026-05-09 02:26 31.77251 35.71604 7582 ft 253 kts 171°
2026-05-09 02:26 31.75507 35.71955 7226 ft 261 kts 170°
2026-05-09 02:26 31.73719 35.72313 6766 ft 257 kts 170°
2026-05-09 02:26 31.71975 35.72669 6471 ft 248 kts 167°
2026-05-09 02:27 31.70487 35.73486 6346 ft 232 kts 136°
2026-05-09 02:27 31.69691 35.75035 6145 ft 226 kts 104°
2026-05-09 02:27 31.69719 35.76860 5817 ft 225 kts 82°
2026-05-09 02:27 31.69984 35.78652 5528 ft 220 kts 81°
2026-05-09 02:28 31.70255 35.80404 5182 ft 210 kts 81°
2026-05-09 02:28 31.70499 35.82020 4885 ft 192 kts 81°
2026-05-09 02:28 31.70716 35.83497 4637 ft 176 kts 81°
2026-05-09 02:28 31.70914 35.84854 4425 ft 166 kts 80°
2026-05-09 02:29 31.71100 35.86128 4228 ft 154 kts 80°
2026-05-09 02:29 31.71278 35.87354 4022 ft 151 kts 79°
2026-05-09 02:29 31.71455 35.88568 3826 ft 150 kts 79°
2026-05-09 02:29 31.71631 35.89778 3634 ft 150 kts 79°
2026-05-09 02:30 31.71807 35.90987 3436 ft 150 kts 78°
2026-05-09 02:30 31.71983 35.92198 3231 ft 150 kts 79°
2026-05-09 02:30 31.72159 35.93405 3018 ft 149 kts 79°
2026-05-09 02:30 31.72340 35.94595 2827 ft 147 kts 79°
2026-05-09 02:31 31.72505 35.95785 2640 ft 148 kts 81°
2026-05-09 02:31 31.72677 35.96960 2471 ft 146 kts 80°
2026-05-09 02:31 31.72836 35.98059 2416 ft 123 kts 80°
2026-05-09 02:31 31.72931 35.98718 2419 ft 37 kts 81°
2026-05-09 02:32 31.72886 35.98988 2419 ft 31 kts 110°
2026-05-09 02:32 31.72831 35.99160 2418 ft 22 kts 110°
2026-05-09 02:32 31.72762 35.99248 2418 ft 13 kts 194°
2026-05-09 02:32 31.72713 35.99163 2418 ft 14 kts 261°
2026-05-09 02:33 31.72696 35.99043 2418 ft 16 kts 260°
2026-05-09 02:33 31.72660 35.98921 2418 ft 16 kts 211°
2026-05-09 02:33 31.72576 35.98922 2418 ft 0 kts 170°
2026-05-09 02:33 31.72570 35.98924 2418 ft 2 kts 172°
2026-05-09 02:34 31.72547 35.98919 2418 ft 5 kts 198°
2026-05-09 02:34 31.72520 35.98884 2417 ft 7 kts 248°
2026-05-09 02:34 31.72474 35.98862 2418 ft 9 kts 173°
2026-05-09 02:34 31.72445 35.98867 2418 ft 1 kts 170°
2026-05-09 02:35 31.72444 35.98868 2418 ft 0 kts 170°